Location: Newark
(52.3500°N, 175.9667°E)
Time: 12:33:37
(UTC+00:00)

N. Korean satellite - Pass Details

Date: 19 November 2019
Orbit: 455 x 506 km, 97.2° (Epoch: 10 December)

Event Time Altitude Azimuth Distance (km) Brightness Sun altitude
Rises 05:45:51 0° 187° (S) 2,565 10.5 -12.9°
Reaches altitude 10° 05:48:02 10° 197° (SSW) 1,696 9.7 -13.3°
Maximum altitude 05:51:24 34° 264° (W) 849 8.5 -13.8°
Drops below altitude 10° 05:54:49 10° 330° (NNW) 1,728 9.6 -14.3°
Sets 05:57:04 0° 340° (NNW) 2,623 10.4 -14.6°
